Location: Lake Runnemede Observatory
(43.4843°N, 72.3851°W)
Time: 14:10:19
(UTC-04:00)

Amateur Radio Satellites - All Passes

Search period start: 27 May 2016 13:40
Search period end: 28 May 2016 13:40
Location: Lake Runnemede Observatory, 43.4843°N, 72.3851°W

Satellite Date Start Highest point End Downlink Frequencies (MHz)
Time Altitude Azimuth
BEESAT 3 27 May 13:46:21 13:48:12 13° 323° (NW) 13:50:04 437.485
ESTCUBE 1 27 May 13:49:32 13:52:07 15° 298° (WNW) 13:54:40 437.505/2401.250
50 SAT 27 May 13:55:00 13:55:58 11° 298° (WNW) 13:56:58 437.505
SWISSCUBE 27 May 13:57:01 13:59:45 15° 90° (E) 14:02:29 437.505
Oscar 19 27 May 13:58:41 14:03:40 45° 261° (W) 14:08:40 437.125/150
DANDE 27 May 14:02:16 14:07:16 29° 297° (WNW) 14:13:24 436.750
ITUPSAT 1 27 May 14:02:58 14:05:46 15° 91° (E) 14:08:33 437.325
CUBEBUG 1 27 May 14:07:10 14:09:13 13° 299° (WNW) 14:11:15 437.445
DX 1 27 May 14:08:30 14:11:03 15° 298° (WNW) 14:13:36 434.975-435.025
CUSAT 1 27 May 14:13:26 14:17:30 16° 306° (NW) 14:21:54 437.405
VELOX 1 27 May 14:13:31 14:15:20 12° 300° (WNW) 14:17:08 145.980
Cosmos 2491 27 May 14:18:34 14:26:17 33° 68° (ENE) 14:33:54 435.465 / 435.565
Gurwin Techsat 1B 27 May 14:18:39 14:23:56 70° 258° (WSW) 14:29:15 435.225
JAS-2 27 May 14:22:59 14:28:50 25° 271° (W) 14:35:01 435.910
BEESAT 27 May 14:25:47 14:29:48 26° 95° (E) 14:33:47 436.000
YUBILEINY 27 May 14:26:52 14:29:27 12° 71° (ENE) 14:32:02 435.215
SPROUT 27 May 14:35:05 14:37:31 15° 297° (WNW) 14:39:58 437.525
ITAMSAT 1 27 May 14:39:16 14:44:25 76° 73° (ENE) 14:49:37 435.822/435.867
AO-7 27 May 14:43:15 14:51:06 49° 62° (ENE) 14:58:59 29.400- 29.500
TISAT 1 27 May 14:59:21 15:02:48 25° 293° (WNW) 15:06:14 437.305
AIST 2 27 May 15:15:57 15:19:33 28° 314° (NW) 15:23:11 435.215
AO-85 27 May 15:18:44 15:23:26 71° 239° (WSW) 15:27:41 145.980
KKS-1 27 May 15:26:51 15:28:58 13° 90° (E) 15:31:05 437.445
SWISSCUBE 27 May 15:33:13 15:37:59 63° 287° (WNW) 15:42:43 437.505
RS-15 27 May 15:38:11 15:44:45 18° 96° (E) 15:51:27 29.354- 29.394
ITUPSAT 1 27 May 15:39:15 15:44:00 62° 287° (WNW) 15:48:44 437.325
MOZHAYETS 4 27 May 15:39:59 15:42:39 15° 90° (E) 15:45:17
HORYU 2 27 May 15:51:38 15:55:15 25° 66° (ENE) 15:58:54 437.375
STARS 27 May 16:02:38 16:05:22 16° 92° (E) 16:08:07 437.465
BEESAT 27 May 16:03:16 16:07:38 36° 292° (WNW) 16:11:59 436.000
Cosmos 2491 27 May 16:15:04 16:23:35 59° 269° (W) 16:32:03 435.465 / 435.565
YUBILEINY 27 May 16:15:50 16:24:23 65° 92° (E) 16:32:57 435.215
ITAMSAT 1 27 May 16:21:54 16:24:28 14° 271° (W) 16:27:03 435.822/435.867
AO-7 27 May 16:36:17 16:43:57 41° 261° (W) 16:51:43 29.400- 29.500
PCSat 27 May 16:55:00 16:57:21 13° 33° (NNE) 16:59:42 145.827
KKS-1 27 May 17:01:33 17:05:57 62° 287° (WNW) 17:10:18 437.445
NOAA 15 27 May 17:02:40 17:07:13 30° 65° (ENE) 17:11:47 137.62
NOAA 18 27 May 17:04:00 17:08:32 28° 63° (ENE) 17:13:05 137.9125
CUBESAT XI-V 27 May 17:05:01 17:07:24 14° 89° (E) 17:09:46 437.345
LilacSat-2 27 May 17:06:53 17:08:38 13° 64° (ENE) 17:10:24 437.200
Cubesat XI-IV 27 May 17:07:27 17:11:33 23° 62° (ENE) 17:15:39 437.490
MOZHAYETS 4 27 May 17:15:37 17:20:11 59° 287° (WNW) 17:24:44
Cosmos 2504 27 May 17:24:32 17:31:22 48° 89° (E) 17:38:34 435.465 / 435.565
HORYU 2 27 May 17:27:44 17:31:42 32° 263° (W) 17:35:40 437.375
STARS 27 May 17:37:47 17:42:01 48° 288° (WNW) 17:46:12 437.465
BRITE-PL 27 May 17:39:11 17:44:34 47° 70° (ENE) 17:50:00 437.365/2234.400
RS-15 27 May 17:43:35 17:54:50 74° 118° (ESE) 18:06:46 29.354- 29.394
CUTE-I 27 May 17:52:26 17:57:35 55° 71° (ENE) 18:02:47 437.470
GOMX 1 27 May 18:04:54 18:10:00 40° 70° (ENE) 18:14:59 467.674
HO-68 27 May 18:12:07 18:16:40 18° 52° (NE) 18:21:13 435.675
YUBILEINY 27 May 18:14:29 18:21:48 30° 294° (WNW) 18:29:12 435.215
AUBIESAT-1 27 May 18:18:56 18:20:09 11° 58° (ENE) 18:21:22 437.475
M-CUBED/EXP-1 PRIME 27 May 18:24:09 18:26:38 16° 60° (ENE) 18:29:03 437.505
PCSat 27 May 18:36:41 18:42:02 54° 55° (NE) 18:47:20 145.827
LilacSat-2 27 May 18:38:49 18:42:32 51° 260° (W) 18:46:15 437.200
CUBESAT XI-V 27 May 18:40:33 18:45:15 66° 286° (WNW) 18:49:54 437.345
O/OREOS (USA 219) 27 May 18:41:41 18:45:36 29° 58° (ENE) 18:49:30 437.305
NOAA 15 27 May 18:41:56 18:46:51 38° 262° (W) 18:51:49 137.62
NOAA 18 27 May 18:43:47 18:48:58 44° 261° (W) 18:54:11 137.9125
Cubesat XI-IV 27 May 18:46:06 18:51:16 51° 260° (W) 18:56:28 437.490
BEESAT 3 27 May 18:46:09 18:47:49 12° 36° (NE) 18:49:28 437.485
DOVE 4 27 May 18:54:13 18:59:20 56° 73° (ENE) 19:04:15 437.250
BRITE-PL 27 May 19:18:28 19:23:11 27° 267° (W) 19:27:58 437.365/2234.400
Cosmos 2504 27 May 19:18:33 19:24:58 33° 291° (WNW) 19:31:46 435.465 / 435.565
CANX-2 27 May 19:25:30 19:29:19 34° 70° (ENE) 19:33:09 2200.000
CINEMA 3 27 May 19:26:07 19:30:25 36° 70° (ENE) 19:34:34 145.822/145.860
SEEDS 27 May 19:28:48 19:32:10 24° 67° (ENE) 19:35:33 437.485
CUTE-I 27 May 19:34:08 19:37:59 20° 268° (W) 19:41:50 437.470
GOMX 1 27 May 19:43:22 19:48:06 29° 266° (W) 19:52:48 467.674
BEESAT 2 27 May 19:47:47 19:51:03 23° 44° (NE) 19:54:18 435.950
AUBIESAT-1 27 May 19:50:07 19:54:15 73° 253° (WSW) 19:58:04 437.475
CUTE 1.7 + AOD 2 27 May 19:52:23 19:56:30 59° 74° (ENE) 20:00:40 437.475
HO-68 27 May 19:56:13 20:03:22 83° 71° (ENE) 20:10:34 435.675
M-CUBED/EXP-1 PRIME 27 May 19:56:51 20:00:56 49° 254° (WSW) 20:04:45 437.505
STRAND 1 27 May 19:57:20 20:02:25 58° 101° (E) 20:07:29 437.568
RS-15 27 May 19:57:32 20:08:20 43° 325° (NW) 20:19:44 29.354- 29.394
Oscar 11 27 May 19:58:34 20:00:40 13° 62° (ENE) 20:02:46 145.826/435.025
ZACube-1 27 May 20:12:13 20:14:47 16° 64° (ENE) 20:17:21 437.345
COMPASS 1 27 May 20:14:09 20:18:11 53° 73° (ENE) 20:22:15 437.405
GONETS M04 27 May 20:15:08 20:19:22 15° 74° (ENE) 20:23:36
CUBEBUG 2 27 May 20:16:02 20:20:02 36° 71° (ENE) 20:23:57 437.445
AAUSAT CUBESAT 2 27 May 20:16:47 20:20:44 45° 72° (ENE) 20:24:43 437.432
PRISM 27 May 20:20:29 20:23:16 17° 93° (E) 20:26:01 437.425
AIST 1 27 May 20:20:36 20:23:10 15° 85° (E) 20:25:46
PCSat 27 May 20:20:51 20:25:03 23° 253° (WSW) 20:29:13 145.827
O/OREOS (USA 219) 27 May 20:21:04 20:24:58 30° 256° (WSW) 20:28:50 437.305
BEESAT 3 27 May 20:22:13 20:26:11 79° 58° (ENE) 20:30:07 437.485
DOVE 4 27 May 20:33:37 20:37:17 19° 268° (W) 20:40:52 437.250
ISS 27 May 20:39:58 20:41:40 13° 132° (SE) 20:43:22 145.825
UWE-3 27 May 20:44:24 20:48:34 50° 73° (ENE) 20:52:39 435.000/436.395/437.385
DELFI C3 27 May 20:47:55 20:50:46 19° 66° (ENE) 20:53:39 145.870
FUNcube-1 27 May 20:48:48 20:52:38 35° 70° (ENE) 20:56:27 145.935
CANX-2 27 May 21:02:02 21:05:15 21° 267° (W) 21:08:30 2200.000
CINEMA 3 27 May 21:03:45 21:07:36 25° 265° (W) 21:11:21 145.822/145.860
SEEDS 27 May 21:04:04 21:07:44 30° 264° (W) 21:11:28 437.485
DANDE 27 May 21:15:23 21:18:52 13° 51° (NE) 21:22:18 436.750
CUSAT 1 27 May 21:20:27 21:26:11 22° 59° (ENE) 21:31:20 437.405
BEESAT 2 27 May 21:25:17 21:29:02 38° 242° (WSW) 21:32:43 435.950
CUTE 1.7 + AOD 2 27 May 21:30:57 21:32:45 12° 271° (W) 21:34:33 437.475
Oscar 11 27 May 21:32:01 21:36:17 64° 259° (W) 21:40:34 145.826/435.025
STRAND 1 27 May 21:37:30 21:41:10 20° 298° (WNW) 21:44:48 437.568
ZACube-1 27 May 21:46:36 21:50:43 49° 261° (W) 21:54:47 437.345
HO-68 27 May 21:47:09 21:51:53 19° 270° (W) 21:56:39 435.675
COMPASS 1 27 May 21:52:01 21:54:05 13° 270° (W) 21:56:10 437.405
CUBEBUG 2 27 May 21:53:27 21:56:46 21° 266° (W) 22:00:02 437.445
AAUSAT CUBESAT 2 27 May 21:53:58 21:56:28 16° 269° (W) 21:58:59 437.432
HUMSAT D 27 May 21:54:13 21:58:08 47° 72° (ENE) 22:02:03 437.325/437.525
PRISM 27 May 21:54:48 21:58:47 42° 289° (WNW) 22:02:42 437.425
AIST 1 27 May 21:56:04 22:00:19 48° 282° (WNW) 22:04:38
AIST 2 27 May 21:57:20 22:01:07 33° 48° (NE) 22:04:52 435.215
Cosmos 2499 27 May 21:59:09 22:05:45 39° 86° (E) 22:12:46 435.465 / 435.565
PHONESAT 2.4 27 May 22:00:13 22:02:15 16° 154° (SSE) 22:04:16 2401.200-2431.200
ANTELSAT 27 May 22:02:29 22:04:13 12° 90° (E) 22:05:58 437.575/2403.000
GONETS M04 27 May 22:05:49 22:14:35 75° 94° (E) 22:23:19
ISS 27 May 22:14:26 22:17:42 80° 328° (NNW) 22:20:59 145.825
RS-15 27 May 22:15:38 22:25:14 26° 359° (N) 22:35:05 29.354- 29.394
DELFI C3 27 May 22:21:46 22:25:24 35° 263° (W) 22:29:06 145.870
UWE-3 27 May 22:22:53 22:25:18 15° 269° (W) 22:27:43 435.000/436.395/437.385
FUNcube-1 27 May 22:25:50 22:29:00 20° 267° (W) 22:32:07 145.935
AISAT 27 May 22:34:14 22:37:33 21° 65° (ENE) 22:40:52 437.250
UKube-1 27 May 22:42:12 22:44:56 17° 63° (ENE) 22:47:40 .
DANDE 27 May 22:55:35 23:03:50 53° 73° (ENE) 23:11:22 436.750
UNISAT 6 27 May 22:55:54 23:00:03 46° 99° (E) 23:04:15 437.425
50 SAT 27 May 22:58:31 23:01:46 31° 70° (ENE) 23:05:02 437.505
CUSAT 1 27 May 23:01:35 23:09:29 86° 262° (W) 23:16:00 437.405
TIGRISAT 27 May 23:03:23 23:07:35 52° 100° (E) 23:11:49 435.000
ESTCUBE 1 27 May 23:11:37 23:16:05 66° 74° (ENE) 23:20:36 437.505/2401.250
CUBEBUG 1 27 May 23:25:45 23:30:09 65° 74° (ENE) 23:34:34 437.445
DX 1 27 May 23:27:18 23:31:36 57° 73° (ENE) 23:35:56 434.975-435.025
HUMSAT D 27 May 23:31:46 23:34:02 14° 269° (W) 23:36:18 437.325/437.525
VELOX 1 27 May 23:33:04 23:37:32 77° 74° (ENE) 23:42:01 145.980
PHONESAT 2.4 27 May 23:35:34 23:38:33 40° 170° (S) 23:41:31 2401.200-2431.200
AIST 2 27 May 23:35:58 23:39:31 27° 245° (WSW) 23:43:01 435.215
DUCHIFAT 1 27 May 23:36:49 23:40:00 21° 94° (E) 23:43:10 145.980
ANTELSAT 27 May 23:37:05 23:41:20 63° 286° (WNW) 23:45:39 437.575/2403.000
ISS 27 May 23:51:50 23:54:31 23° 347° (NNW) 23:57:13 145.825
Cosmos 2499 27 May 23:51:58 23:58:46 41° 288° (WNW) 00:06:06 435.465 / 435.565
SPROUT 27 May 23:52:16 23:56:23 48° 72° (ENE) 00:00:32 437.525
BUGSAT 1 27 May 23:54:59 23:57:19 15° 91° (E) 23:59:39 437.445
GONETS M04 28 May 00:05:17 00:12:18 26° 296° (WNW) 00:19:19
SO-50 28 May 00:07:25 00:11:51 35° 116° (ESE) 00:16:19 436.795
AISAT 28 May 00:09:31 00:13:45 42° 261° (W) 00:18:01 437.250
POPSAT HIP 1 28 May 00:14:28 00:18:38 60° 101° (E) 00:22:46 437.405
QB50P1 28 May 00:14:50 00:19:01 62° 101° (E) 00:23:10 145.935-145.965
UKube-1 28 May 00:16:21 00:20:34 52° 260° (W) 00:24:50 .
TISAT 1 28 May 00:16:26 00:19:56 26° 67° (ENE) 00:23:26 437.305
QB50P2 28 May 00:17:12 00:21:25 70° 102° (ESE) 00:25:35 145.880/145.840
POLYITAN 1 28 May 00:19:39 00:23:52 71° 102° (ESE) 00:28:02 437.675
RS-15 28 May 00:31:06 00:42:22 40° 33° (NNE) 00:53:43 29.354- 29.394
50 SAT 28 May 00:33:09 00:35:35 17° 267° (W) 00:38:03 437.505
NANOSAT C BR1 28 May 00:33:10 00:37:23 86° 284° (WNW) 00:41:33 145.865
UNISAT 6 28 May 00:33:34 00:36:27 18° 296° (WNW) 00:39:21 437.425
DANDE 28 May 00:38:52 00:46:26 38° 273° (W) 00:53:22 436.750
TIGRISAT 28 May 00:41:18 00:43:53 16° 297° (WNW) 00:46:29 435.000
CUSAT 1 28 May 00:45:47 00:50:11 17° 283° (WNW) 00:54:14 437.405
ESTCUBE 1 28 May 00:51:21 00:53:22 13° 271° (W) 00:55:23 437.505/2401.250
SWISSCUBE 28 May 01:04:27 01:07:57 21° 63° (ENE) 01:11:28 437.505
CUBEBUG 1 28 May 01:04:55 01:06:52 13° 270° (W) 01:08:48 437.445
DX 1 28 May 01:05:48 01:08:09 14° 269° (W) 01:10:30 434.975-435.025
ITUPSAT 1 28 May 01:10:40 01:14:13 21° 63° (ENE) 01:17:48 437.325
DUCHIFAT 1 28 May 01:12:00 01:15:48 34° 290° (WNW) 01:19:34 145.980
PHONESAT 2.4 28 May 01:12:03 01:15:04 44° 187° (S) 01:18:04 2401.200-2431.200
VELOX 1 28 May 01:13:30 01:14:31 11° 271° (W) 01:15:32 145.980
BUGSAT 1 28 May 01:29:05 01:32:58 45° 288° (WNW) 01:36:47 437.445
ISS 28 May 01:29:12 01:31:45 20° 8° (N) 01:34:17 145.825
SPROUT 28 May 01:29:57 01:32:36 16° 268° (W) 01:35:16 437.525
JAS-2 28 May 01:30:03 01:37:29 60° 99° (E) 01:44:04 435.910
BEESAT 28 May 01:33:11 01:37:28 34° 68° (ENE) 01:41:46 436.000
SO-50 28 May 01:47:50 01:52:21 35° 314° (NW) 01:56:51 436.795
TISAT 1 28 May 01:51:48 01:55:29 29° 264° (W) 01:59:12 437.305
POPSAT HIP 1 28 May 01:51:50 01:53:56 14° 298° (WNW) 01:56:02 437.405
QB50P1 28 May 01:52:16 01:54:18 13° 298° (WNW) 01:56:19 145.935-145.965
QB50P2 28 May 01:54:59 01:56:39 12° 299° (WNW) 01:58:19 145.880/145.840
POLYITAN 1 28 May 01:57:33 01:59:05 12° 299° (WNW) 02:00:39 437.675
Oscar 19 28 May 02:08:46 02:13:52 58° 101° (E) 02:18:55 437.125/150
YUBILEINY 28 May 02:24:40 02:32:28 34° 69° (ENE) 02:40:13 435.215
KKS-1 28 May 02:26:03 02:28:42 16° 62° (ENE) 02:31:21 437.445
Gurwin Techsat 1B 28 May 02:33:43 02:38:47 42° 98° (E) 02:43:48 435.225
SWISSCUBE 28 May 02:40:51 02:45:25 47° 260° (W) 02:50:02 437.505
MOZHAYETS 4 28 May 02:43:12 02:46:08 17° 63° (ENE) 02:49:05
RS-15 28 May 02:44:00 02:56:22 84° 239° (WSW) 03:08:40 29.354- 29.394
AO-7 28 May 02:46:48 02:49:29 12° 85° (E) 02:52:11 29.400- 29.500
ITUPSAT 1 28 May 02:47:11 02:51:45 46° 261° (W) 02:56:21 437.325
PHONESAT 2.4 28 May 02:49:04 02:51:26 20° 203° (SSW) 02:53:46 2401.200-2431.200
ITAMSAT 1 28 May 02:51:29 02:55:42 24° 94° (E) 02:59:54 435.822/435.867
STARS 28 May 03:00:31 03:03:30 18° 63° (ENE) 03:06:30 437.465
ISS 28 May 03:05:31 03:08:43 51° 27° (NNE) 03:11:55 145.825
BEESAT 28 May 03:11:17 03:15:17 27° 265° (W) 03:19:20 436.000
Cosmos 2504 28 May 03:14:50 03:20:55 21° 63° (ENE) 03:27:11 435.465 / 435.565
JAS-2 28 May 03:15:38 03:21:57 30° 300° (WNW) 03:27:46 435.910
Cosmos 2491 28 May 03:21:34 03:29:18 36° 84° (E) 03:37:01 435.465 / 435.565
Oscar 19 28 May 03:49:06 03:52:45 20° 299° (WNW) 03:56:22 437.125/150
KKS-1 28 May 04:00:24 04:04:48 59° 259° (WSW) 04:09:14 437.445
CUBESAT XI-V 28 May 04:09:29 04:12:24 17° 62° (ENE) 04:15:18 437.345
Gurwin Techsat 1B 28 May 04:14:06 04:18:31 27° 296° (WNW) 04:22:55 435.225
MOZHAYETS 4 28 May 04:18:25 04:22:53 54° 260° (W) 04:27:23
YUBILEINY 28 May 04:21:11 04:29:40 57° 270° (W) 04:38:09 435.215
ITAMSAT 1 28 May 04:30:24 04:35:21 44° 291° (WNW) 04:40:17 435.822/435.867
STARS 28 May 04:35:15 04:39:31 48° 260° (W) 04:43:47 437.465
AO-7 28 May 04:35:29 04:43:49 65° 104° (ESE) 04:52:07 29.400- 29.500
ISS 28 May 04:42:21 04:44:58 22° 224° (SW) 04:47:35 145.825
RS-15 28 May 04:58:23 05:07:02 23° 261° (W) 05:15:41 29.354- 29.394
Cosmos 2504 28 May 05:06:55 05:15:23 89° 263° (W) 05:24:15 435.465 / 435.565
HORYU 2 28 May 05:16:54 05:21:06 41° 99° (E) 05:25:18 437.375
Cosmos 2491 28 May 05:17:11 05:25:46 54° 285° (WNW) 05:34:24 435.465 / 435.565
AO-85 28 May 05:33:08 05:38:00 34° 114° (ESE) 05:42:48 145.980
STRAND 1 28 May 05:38:36 05:40:59 13° 58° (ENE) 05:43:22 437.568
CUBESAT XI-V 28 May 05:44:40 05:49:16 60° 259° (W) 05:53:57 437.345
BRITE-PL 28 May 05:45:28 05:47:42 13° 86° (E) 05:49:50 437.365/2234.400
CUTE-I 28 May 06:09:03 06:12:55 20° 92° (E) 06:16:47 437.470
LilacSat-2 28 May 06:12:05 06:14:19 15° 92° (E) 06:16:33 437.200
AO-7 28 May 06:28:57 06:36:04 33° 304° (NW) 06:43:12 29.400- 29.500
HORYU 2 28 May 06:54:06 06:57:24 21° 296° (WNW) 07:00:41 437.375
DOVE 4 28 May 06:54:42 06:56:09 11° 88° (E) 06:57:34 437.250
NOAA 15 28 May 06:55:20 07:00:40 73° 103° (ESE) 07:05:56 137.62
SO-50 28 May 06:59:15 07:00:22 11° 27° (NNE) 07:01:28 436.795
Cubesat XI-IV 28 May 07:01:51 07:07:09 58° 101° (E) 07:12:26 437.490
Cosmos 2504 28 May 07:02:11 07:07:41 19° 282° (WNW) 07:13:20 435.465 / 435.565
NOAA 18 28 May 07:04:08 07:09:37 71° 103° (ESE) 07:15:06 137.9125
PRISM 28 May 07:11:33 07:14:03 16° 63° (ENE) 07:16:34 437.425
AO-85 28 May 07:13:16 07:18:27 42° 312° (NW) 07:23:30 145.980
STRAND 1 28 May 07:14:19 07:19:25 88° 260° (W) 07:24:33 437.568
BRITE-PL 28 May 07:21:43 07:26:54 75° 285° (WNW) 07:31:36 437.365/2234.400
Cosmos 2491 28 May 07:22:53 07:25:06 11° 309° (NW) 07:27:18 435.465 / 435.565
HO-68 28 May 07:25:06 07:28:33 14° 87° (E) 07:31:59 435.675
GOMX 1 28 May 07:43:50 07:48:35 88° 103° (ESE) 07:52:58 467.674
LilacSat-2 28 May 07:45:17 07:48:49 39° 288° (WNW) 07:52:20 437.200
CUTE-I 28 May 07:48:04 07:53:19 56° 289° (WNW) 07:58:33 437.470
Cosmos 2499 28 May 07:48:17 07:53:41 18° 59° (ENE) 07:59:09 435.465 / 435.565
AIST 1 28 May 08:01:48 08:06:00 43° 77° (ENE) 08:10:07
GONETS M04 28 May 08:14:56 08:22:58 39° 71° (ENE) 08:30:56
DOVE 4 28 May 08:30:02 08:34:25 64° 286° (WNW) 08:38:34 437.250
NOAA 15 28 May 08:36:31 08:39:49 17° 301° (WNW) 08:43:07 137.62
SO-50 28 May 08:37:35 08:42:08 43° 49° (NE) 08:46:30 436.795
Cubesat XI-IV 28 May 08:42:53 08:46:47 21° 299° (WNW) 08:50:42 437.490
CANX-2 28 May 08:44:32 08:48:47 59° 101° (E) 08:53:01 2200.000
PRISM 28 May 08:44:55 08:48:57 50° 260° (W) 08:53:02 437.425
NOAA 18 28 May 08:46:05 08:49:42 18° 301° (WNW) 08:53:20 137.9125
SEEDS 28 May 08:46:12 08:50:12 38° 97° (E) 08:54:11 437.485
O/OREOS (USA 219) 28 May 08:55:24 08:59:10 26° 103° (ESE) 09:02:56 437.305
CINEMA 3 28 May 08:56:15 09:00:26 72° 102° (ESE) 09:04:34 145.822/145.860
STRAND 1 28 May 08:58:19 08:59:19 10° 273° (W) 09:00:19 437.568
AO-85 28 May 08:58:23 09:00:18 12° 333° (NNW) 09:02:11 145.980
AUBIESAT-1 28 May 09:02:15 09:05:33 61° 106° (ESE) 09:08:50 437.475
ANTELSAT 28 May 09:02:46 09:04:55 14° 62° (ENE) 09:07:04 437.575/2403.000
BRITE-PL 28 May 09:03:25 09:04:18 10° 305° (NW) 09:05:11 437.365/2234.400
M-CUBED/EXP-1 PRIME 28 May 09:09:31 09:12:49 82° 289° (WNW) 09:16:05 437.505
HO-68 28 May 09:10:07 09:17:20 79° 106° (ESE) 09:24:31 435.675
CUTE 1.7 + AOD 2 28 May 09:11:40 09:15:58 80° 283° (WNW) 09:20:14 437.475
Oscar 11 28 May 09:18:37 09:21:57 21° 93° (E) 09:25:16 145.826/435.025
PCSat 28 May 09:19:38 09:24:36 38° 112° (ESE) 09:29:36 145.827
GOMX 1 28 May 09:24:30 09:25:49 11° 303° (WNW) 09:27:08 467.674
COMPASS 1 28 May 09:31:03 09:35:18 88° 108° (ESE) 09:39:32 437.405
AAUSAT CUBESAT 2 28 May 09:32:58 09:37:12 75° 103° (ESE) 09:41:23 437.432
ZACube-1 28 May 09:33:45 09:37:19 26° 95° (E) 09:40:54 437.345
Cosmos 2499 28 May 09:39:38 09:48:16 76° 80° (E) 09:57:10 435.465 / 435.565
AIST 1 28 May 09:40:28 09:43:12 16° 275° (W) 09:45:54
CUBEBUG 2 28 May 09:41:34 09:45:43 71° 102° (ESE) 09:49:56 437.445
UNISAT 6 28 May 09:55:47 09:59:57 46° 72° (ENE) 10:04:05 437.425
DELFI C3 28 May 09:58:15 10:01:40 26° 95° (E) 10:05:02 145.870
TIGRISAT 28 May 10:03:02 10:07:16 52° 73° (ENE) 10:11:27 435.000
UWE-3 28 May 10:08:47 10:12:59 83° 284° (WNW) 10:17:13 435.000/436.395/437.385
FUNcube-1 28 May 10:11:03 10:15:13 65° 101° (E) 10:19:27 145.935
GONETS M04 28 May 10:11:44 10:19:56 49° 272° (W) 10:28:07
SO-50 28 May 10:18:36 10:22:21 24° 248° (WSW) 10:26:01 436.795
CANX-2 28 May 10:21:51 10:24:09 14° 297° (WNW) 10:26:28 2200.000
SEEDS 28 May 10:22:32 10:25:39 20° 294° (WNW) 10:28:46 437.485
CUSAT 1 28 May 10:24:37 10:28:47 17° 77° (ENE) 10:33:21 437.405
DUCHIFAT 1 28 May 10:30:09 10:33:09 19° 65° (ENE) 10:36:09 145.980
O/OREOS (USA 219) 28 May 10:34:17 10:38:26 34° 301° (WNW) 10:42:34 437.305
CINEMA 3 28 May 10:35:48 10:36:59 11° 299° (WNW) 10:38:11 145.822/145.860
ANTELSAT 28 May 10:36:50 10:41:09 63° 258° (WSW) 10:45:25 437.575/2403.000
BUGSAT 1 28 May 10:46:20 10:48:33 14° 63° (ENE) 10:50:44 437.445
Oscar 11 28 May 10:54:11 10:58:12 37° 290° (WNW) 11:02:10 145.826/435.025
HO-68 28 May 10:58:59 11:04:18 23° 305° (NW) 11:09:37 435.675
PCSat 28 May 11:03:03 11:08:01 35° 311° (NW) 11:13:01 145.827
ESTCUBE 1 28 May 11:04:45 11:06:51 13° 89° (E) 11:08:55 437.505/2401.250
POPSAT HIP 1 28 May 11:07:48 11:11:55 51° 72° (ENE) 11:16:01 437.405
QB50P1 28 May 11:08:07 11:12:14 52° 73° (ENE) 11:16:22 145.935-145.965
ZACube-1 28 May 11:10:00 11:13:34 27° 291° (WNW) 11:17:10 437.345
QB50P2 28 May 11:10:37 11:14:48 59° 73° (ENE) 11:18:59 145.880/145.840
AAUSAT CUBESAT 2 28 May 11:10:44 11:12:05 11° 299° (WNW) 11:13:26 437.432
HUMSAT D 28 May 11:11:33 11:15:44 79° 102° (ESE) 11:19:56 437.325/437.525
POLYITAN 1 28 May 11:13:05 11:17:16 61° 74° (ENE) 11:21:26 437.675
CUBEBUG 1 28 May 11:15:51 11:16:56 11° 88° (E) 11:18:01 437.445
BEESAT 2 28 May 11:18:29 11:21:46 25° 114° (ESE) 11:25:03 435.950
CUBEBUG 2 28 May 11:20:24 11:21:49 11° 299° (WNW) 11:23:13 437.445
VELOX 1 28 May 11:23:48 11:25:55 13° 90° (E) 11:28:01 145.980
NANOSAT C BR1 28 May 11:26:01 11:30:15 80° 74° (ENE) 11:34:29 145.865
DELFI C3 28 May 11:33:04 11:36:28 26° 291° (WNW) 11:39:50 145.870
Cosmos 2499 28 May 11:34:01 11:40:33 25° 279° (W) 11:47:14 435.465 / 435.565
UNISAT 6 28 May 11:34:08 11:36:55 16° 268° (W) 11:39:40 437.425
TIGRISAT 28 May 11:41:51 11:44:15 15° 269° (W) 11:46:41 435.000
JAS-2 28 May 11:42:10 11:48:44 35° 62° (ENE) 11:55:36 435.910
FUNcube-1 28 May 11:49:09 11:50:59 13° 298° (WNW) 11:52:50 145.935
Oscar 19 28 May 11:50:38 11:53:13 14° 58° (ENE) 11:55:49 437.125/150
BEESAT 3 28 May 11:51:01 11:54:57 83° 305° (NW) 11:58:56 437.485
AISAT 28 May 11:58:31 12:02:30 32° 97° (E) 12:06:27 437.250
50 SAT 28 May 12:00:01 12:03:27 34° 98° (E) 12:06:53 437.505
UKube-1 28 May 12:02:44 12:06:11 23° 95° (E) 12:09:36 .
CUSAT 1 28 May 12:03:05 12:09:33 89° 99° (E) 12:17:25 437.405
DUCHIFAT 1 28 May 12:04:36 12:08:34 40° 262° (W) 12:12:33 145.980
DANDE 28 May 12:04:49 12:10:09 46° 89° (E) 12:17:01 436.750
BUGSAT 1 28 May 12:19:19 12:23:28 58° 260° (W) 12:27:36 437.445
Gurwin Techsat 1B 28 May 12:20:28 12:22:07 11° 55° (NE) 12:23:47 435.225
ESTCUBE 1 28 May 12:39:34 12:44:06 66° 286° (WNW) 12:48:35 437.505/2401.250
POPSAT HIP 1 28 May 12:45:38 12:48:00 15° 269° (W) 12:50:22 437.405
QB50P1 28 May 12:46:02 12:48:20 14° 269° (W) 12:50:37 145.935-145.965
QB50P2 28 May 12:49:06 12:50:58 13° 270° (W) 12:52:52 145.880/145.840
CUBEBUG 1 28 May 12:49:21 12:53:45 73° 285° (WNW) 12:58:04 437.445
HUMSAT D 28 May 12:49:52 12:50:45 11° 299° (WNW) 12:51:38 437.325/437.525
DX 1 28 May 12:50:17 12:54:40 89° 285° (WNW) 12:59:00 434.975-435.025
POLYITAN 1 28 May 12:51:42 12:53:27 12° 270° (W) 12:55:13 437.675
BEESAT 2 28 May 12:55:52 12:59:29 33° 312° (NW) 13:03:07 435.950
VELOX 1 28 May 12:58:25 13:02:48 62° 287° (WNW) 13:07:08 145.980
SPROUT 28 May 13:12:41 13:16:58 81° 105° (ESE) 13:21:13 437.525
Oscar 19 28 May 13:26:36 13:31:49 87° 258° (WSW) 13:37:03 437.125/150
BEESAT 3 28 May 13:31:32 13:33:18 12° 324° (NW) 13:35:04 437.485
50 SAT 28 May 13:34:26 13:36:56 17° 294° (WNW) 13:39:27 437.505
